Zurück zum Katalog

DSCS 3-1

AktivMilitärGEO
NORAD 13637·PAYLOAD·🇺🇸 United States

Gestartet Oct 30, 1982 von Cape Canaveral Space Force Station

Loading…

TLE

AktuellSource: Space-Track

Epoche: Sep 13, 2026, 20:48 UTC

1 13637U 82106B   26256.86720250 -.00000130  00000-0  00000+0 0  9992
2 13637  12.3155 333.3065 0019179 205.7358 150.4822  0.97827942 66179

Verfolge DSCS 3-1 in Echtzeit mit AllMySat

Download on the App Store